DIVISION OF AGRICULTURAL PHYSICS
INDIAN AGRICULTURAL RESEARCH INSTITUTE
NEW DELHI, INDIA-110012
Phone No. 011-25843014

(IARI: Latitude: 280 38'23"N, Longitude:770 09'27"E., Altitude: 228.61m above msl.)
Duration of data : Last 60 days
Date Max.
Temp.
(oC)
Min.
Temp.
(oC)
Rainfall
(mm)
Wind
Speed
(Kmph)
Wind
Direction-I
Wind
Direction-II
Weather
condition-I
(Code 0-9)
Weather
condition-II
(Code 0-9)
RH-I
(%)
RH-II
(%)
BSS
(hrs)
Evaporation
(mm)
2017-03-29 37.4 20.6 0.00 5.2 W N 0 0 74.0 40.0 9.2 6.0
2017-03-30 37.5 22.2 0.00 8.4 W W 0 0 72.0 42.0 9.0 5.8
2017-03-31 38.0 21.6 0.00 7.4 W W 0 0 72.0 43.0 9.8 7.0
2017-04-01 38.5 19.0 0.00 4.8 C N 0 0 84.0 36.0 7.9 6.7
2017-04-02 39.2 21.8 0.00 5.9 W NW 0 0 71.0 39.0 9.4 6.9
2017-04-03 37.4 19.0 0.00 6.4 SE W 0 0 74.0 37.0 10.2 7.2
2017-04-04 39.0 19.3 0.00 6.3 NW N 1 0 77.0 43.0 10.0 7.3
2017-04-05 36.4 19.9 8.00 9.2 C E 0 1 88.0 59.0 5.7 4.7
2017-04-06 32.6 23.1 0.00 9.1 SE W 1 1 76.0 38.0 8.7 5.9
2017-04-07 38.0 19.5 0.00 13.1 N SW 1 0 74.0 41.0 7.7 6.6
2017-04-08 34.4 13.7 0.00 3.8 NW W 0 0 74.0 42.0 8.6 7.4
2017-04-09 33.4 19.7 0.00 6.8 NW NW 0 0 55.0 41.0 9.4 6.8
2017-04-10 32.8 19.4 0.00 11.5 NW W 0 0 57.0 43.0 10.4 5.9
2017-04-11 34.2 19.6 0.00 11.4 W NW 0 0 57.0 45.0 10.0 8.0
2017-04-12 37.8 19.8 0.00 10.7 W N 0 0 72.0 45.0 9.8 8.0
2017-04-13 39.2 16.6 0.00 6.0 C W 0 0 70.0 38.0 9.6 8.4
2017-04-14 39.5 17.6 0.00 2.8 C W 0 0 72.0 36.0 10.2 8.0
2017-04-15 40.2 18.8 0.00 1.7 C NW 0 0 66.0 40.0 9.5 7.8
2017-04-16 41.2 18.4 0.00 4.6 C N 0 0 60.0 35.0 10.4 7.2
2017-04-17 39.8 21.8 0.00 2.9 NE SE 0 0 68.0 42.0 9.4 6.4
2017-04-18 41.0 21.4 0.00 3.5 C NW 0 0 84.0 39.0 8.8 7.5
2017-04-19 42.1 22.1 0.00 4.7 NW N 0 0 56.0 39.0 8.9 8.1
2017-04-20 42.5 21.9 0.00 4.8 C W 0 0 63.0 38.0 10.0 7.4
2017-04-21 43.2 22.6 0.00 9.4 SE C 2 0 78.0 48.0 9.8 6.8
2017-04-22 40.6 26.5 0.00 4.8 N C 2 0 71.0 51.0 7.0 6.0
2017-04-23 39.0 25.4 0.00 7.5 NW N 0 0 89.0 34.0 4.1 6.4
2017-04-24 39.5 24.4 0.00 7.6 N NW 0 0 69.0 41.0 10.0 7.0
2017-04-25 37.5 22.8 0.00 7.2 W W 0 0 62.0 39.0 9.8 7.0
2017-04-26 38.0 21.0 0.00 9.7 W W 0 0 70.0 36.0 10.0 6.6
2017-04-27 38.6 19.2 0.00 5.8 SW S 1 0 73.0 38.0 8.7 6.4
2017-04-28 38.0 21.4 0.00 5.6 C W 2 2 62.0 38.0 6.6 5.8
2017-04-29 39.0 21.8 0.00 1.6 C NW 0 2 63.0 37.0 3.4 6.0
2017-04-30 38.2 23.8 0.00 6.1 NE NW 1 0 78.0 42.0 5.3 6.0
2017-05-01 37.0 19.5 0.00 7.0 C N 0 0 64.0 47.0 8.5 5.8
2017-05-02 37.0 19.2 0.00 3.3 C NW 0 0 62.0 32.0 10.0 7.0
2017-05-03 40.0 22.4 0.00 3.1 C W 1 0 63.0 37.0 9.0 8.0
2017-05-04 40.0 22.9 0.00 5.3 S N 0 0 59.0 40.0 2.3 6.2
2017-05-05 38.8 21.6 0.00 6.9 N NW 0 0 64.0 41.0 8.6 6.5
2017-05-06 40.6 22.2 0.00 5.2 C W 0 0 74.0 41.0 8.8 7.0
2017-05-07 41.3 22.4 0.00 2.9 C N 0 0 62.0 36.0 9.2 8.3
2017-05-08 43.9 26.3 0.00 4.3 W C 0 0 57.0 40.0 8.8 8.4
2017-05-09 42.7 25.9 0.00 4.3 E W 0 0 75.0 40.0 6.3 7.3
2017-05-10 42.0 26.6 0.00 8.8 E SE 0 0 75.0 52.0 7.9 5.7
2017-05-11 39.0 23.5 12.20 8.2 C N 0 0 78.0 46.0 8.1 6.0
2017-05-12 39.6 27.5 0.00 4.3 C W 0 0 54.0 43.0 9.3 6.0
2017-05-13 41.0 24.9 0.00 3.2 C N 0 0 63.0 40.0 5.3 7.3
2017-05-14 42.0 25.4 0.00 4.0 C W 0 0 61.0 36.0 8.4 6.0
2017-05-15 43.5 25.8 0.00 4.7 SW NW 0 0 60.0 31.0 9.5 7.0
2017-05-16 43.8 28.4 0.00 8.3 NW NW 2 0 66.0 44.0 10.4 8.0
2017-05-17 41.2 26.5 0.00 9.9 NW NNW 1 0 94.0 49.0 8.6 7.0
2017-05-18 36.8 24.4 0.00 3.3 C W 1 0 69.0 29.0 4.4 5.8
2017-05-19 39.4 25.8 2.40 4.5 E NE 1 0 68.0 43.0 7.6 6.0
2017-05-20 40.8 25.4 0.00 7.9 W NW 1 1 63.0 52.0 6.4 6.2
2017-05-21 38.8 24.4 0.00 5.7 NW NE 2 0 61.0 45.0 5.2 6.0
2017-05-22 38.5 22.4 8.40 6.3 N S 1 1 73.0 70.0 5.8 6.0
2017-05-23 28.5 21.5 0.00 3.6 SW N 0 0 70.0 28.0 0.0 4.8
2017-05-24 38.4 24.5 0.00 4.6 SE E 0 0 61.0 28.0 8.9 7.6
2017-05-25 40.8 26.6 0.00 5.4 SW SW 0 2 64.0 23.0 9.0 6.5
2017-05-26 41.5 27.5 0.00 3.4 W N 0 0 63.0 26.0 9.0 6.2
2017-05-27 44.5 28.4 0.00 7.9 S 0 0 65.0 0.0 10.0 7.2

Abbrevations used:
I - Observations taken at 7.21 hrs. and II - Observations taken at 14:21 hrs.
Codes:
0 - Fair (clear and slightly clouded), 1 - Variable Sky, 2 - Mainly Overcast, 3 - Sand Storm or Dust Storm,4 - Fog or Thick Dust Haze, 5 - Drizzle, 6 - Rain,7 - Snow or Sleet, 8 - Shower (s), 9 - Thunder Storm with or without Precipitation